Погода в Пирятине

Украина / Полтавская область     50°14′39″N   32°30′58″E
темп.,
°C
ветер,
м/с
пор.,
м/с
влажн.,
%
обл.,
%
осадки,
мм/ч
давл.,
гПа
погр.,
м
5 декабря, вс
вс523:00−2ююв238665 0.0 101462
02:00−2юв228762 0.0 101443
05:00−2ююв248749 0.0 101477
08:00−2юв23845 0.0 101561
11:00+1юв3565100 0.0 1015307
14:00+1юв3566100 0.0 1014264
17:00−1юв3573100 0.0 101597
20:00−1юв3772100 0.0 1015196
6 декабря, пн
пн623:00−1юв4976100 0.0 1016267
02:000юв497098 0.0 1015248
05:000юв41074100 0.0 1014298
08:000юв51097100 1.1 1015307
11:00+1юв51295100 1.3 1014401
14:00+1юв51195100 2.6 1013341
17:00+2юв51198100 1.4 1013336
20:00+2юв51298100 2.8 1012364
7 декабря, вт
вт723:00+3юв51298100 0.1 1010324
02:00+4юв41099100 0.3 1010227
05:00+6ююв41099100 0.1 1009224
08:00+6ююв4999100 0.1 1008197
11:00+8ююв51297100 0.3 1008432
14:00+10ю51293100 0.3 1007504
17:00+9ю51197100 0.4 1007371
20:00+8ю3699100 1.6 1007233
8 декабря, ср
ср823:00+6сз2398100 1.3 1008119
02:00+5ссз3594100 1.3 1009184
05:00+4с4693100 0.0 1009213
08:00+4с4792100 0.0 1009231
11:00+5ссв5994100 1.0 1008275
14:00+5ссв5993100 1.3 1007380
17:00+6ссв5995100 0.9 1006338
20:00+5св3692100 0.9 1006193
9 декабря, чт
чт923:00+5св2394100 0.6 100797
02:00+5с2297100 2.6 100780
05:00+4сз3496100 0.1 1008196
08:00+4сз3594100 0.1 1010208
11:00+2зсз5791100 0.1 1012335
14:00+2сз348699 0.1 1013301
17:00+2зсз3585100 0.0 1015299
20:00+2зсз248887 0.0 1017217